Theta_e
309 307 306 299 296 299 295 299 298 301 306 314 319 319 321 325 332 335 333 330 336 342 341 336 340 336 339 347 352 353 355 352
307 309 306 303 303 296 295 294 294 301 302 306 315 316 323 320 323 328 329 335 336 338 341 344 344 345 348 350 339 337 335 351
306 302 301 302 298 299 299 300 295 294 299 311 313 317 322 320 323 325 324 331 334 335 337 341 343 345 347 348 345 338 342 350
297 308 312 306 304 300 297 296 298 297 299 315 317 319 319 324 329 327 322 329 332 326 335 337 338 340 342 342 343 345 345 347
297 303 305 306 305 304 301 297 295 296 300 315 315 314 323 327 328 326 334 334 332 326 330 332 328 331 336 336 336 340 341 347
294 300 302 303 308 307 301 297 296 298 302 308 311 312 313 314 328 331 331 332 330 326 324 322 320 325 330 329 331 335 336 340
300 308 309 308 306 307 304 304 297 302 305 306 310 313 315 317 325 331 330 331 330 329 326 325 323 329 329 329 330 330 332 332
299 308 308 305 307 308 309 309 309 308 307 311 314 317 317 317 317 322 325 330 330 331 330 326 326 329 329 328 329 329 329 329
295 301 302 299 304 307 308 309 309 305 308 315 314 316 315 315 317 317 319 321 320 322 324 325 326 329 331 328 329 329 329 329
295 296 291 300 312 313 309 311 311 310 311 312 313 313 312 313 311 312 313 315 315 315 316 320 321 322 323 326 328 330 330 328
293 292 297 306 307 307 306 305 311 308 310 311 312 312 310 313 313 312 313 313 314 317 319 320 320 322 323 324 326 326 328 329
293 291 291 303 311 313 312 299 311 309 308 308 307 299 303 310 315 316 317 318 318 319 318 318 319 319 317 318 319 320 322 325
296 293 301 308 311 314 299 300 309 309 308 308 304 305 309 315 316 317 317 319 320 319 318 318 320 320 319 321 321 325 328 329
299 297 295 311 309 303 305 307 308 309 309 310 309 312 313 315 316 317 317 319 321 319 319 321 321 321 321 322 326 327 328 327
299 300 306 308 308 308 309 308 307 311 312 313 312 312 315 314 315 316 316 316 318 316 316 318 320 321 320 323 325 325 324 325
302 306 307 309 310 312 311 313 314 315 314 315 313 313 312 312 313 313 314 315 317 317 316 315 318 320 320 322 323 322 322 322
304 306 308 310 311 314 316 317 316 317 316 314 313 312 312 311 312 314 315 316 318 318 317 318 319 320 322 322 323 321 322 322
301 307 306 307 314 317 315 315 316 315 314 314 313 311 312 313 314 315 315 317 318 319 319 320 320 321 323 320 319 318 319 323
307 309 310 315 317 317 315 316 316 314 314 311 312 312 313 314 315 315 315 315 315 314 315 315 312 312 314 313 312 310 312 316
Wind_Speed
8 5 11 4 2 9 5 2 6 3 5 6 9 11 10 8 11 3 7 7 7 2 4 10 9 10 6 10 1 7 7 5
5 4 2 6 5 3 4 3 2 4 5 6 3 5 9 15 11 12 13 10 7 5 10 6 5 7 7 4 9 8 8 6
4 4 3 6 5 5 5 5 7 4 8 8 10 10 11 12 19 18 15 10 6 6 7 7 6 5 4 4 10 7 11 12
2 3 6 5 6 7 6 7 1 3 6 5 10 11 11 19 15 7 1 6 5 7 6 5 5 5 5 5 3 2 5 6
11 10 5 8 4 4 5 3 0 5 6 1 8 7 6 7 6 4 7 7 5 6 4 4 1 3 5 5 4 5 7 7
7 8 3 4 4 5 6 6 4 1 3 8 8 9 7 4 6 7 6 6 3 3 4 4 2 2 4 4 4 4 6 6
1 4 4 2 2 7 6 3 5 4 9 2 5 8 7 8 7 7 5 5 6 6 6 5 5 6 5 4 5 5 5 5
5 3 3 3 7 3 3 4 5 8 6 2 2 5 9 7 8 5 5 5 5 4 4 6 7 7 5 5 5 3 4 3
2 2 5 8 9 13 9 10 8 7 2 2 10 13 11 11 8 7 6 5 4 2 3 4 6 6 5 6 4 4 5 6
3 5 5 1 11 20 20 14 14 10 7 8 7 5 6 6 7 7 7 7 7 6 6 5 1 4 4 3 6 6 6 7
5 3 3 4 4 2 7 7 5 7 7 6 3 1 6 6 5 6 7 6 6 6 6 6 7 7 6 6 7 7 8 9
3 4 3 4 5 2 6 3 2 6 4 4 6 4 4 7 4 6 6 5 7 7 5 6 8 7 7 8 7 8 7 8
2 4 1 3 6 2 5 6 1 6 4 6 5 3 5 5 8 5 5 8 8 7 6 7 8 7 8 7 7 7 7 6
3 5 3 2 5 7 6 2 4 6 5 6 2 4 6 8 8 9 9 12 11 9 10 11 9 7 9 10 10 10 8 7
3 5 4 6 9 3 5 4 4 6 2 4 6 6 7 6 7 7 8 9 11 11 12 12 12 10 12 12 9 8 9 10
6 4 5 6 3 5 7 8 5 4 7 8 6 6 6 6 7 8 7 11 10 13 15 13 12 13 13 14 13 10 8 11
5 2 5 4 5 8 6 5 11 10 11 10 7 6 5 5 6 8 10 11 12 12 14 16 13 14 14 13 11 11 12 11
6 5 7 3 4 5 9 12 8 9 8 6 6 5 6 10 9 9 11 11 11 13 13 13 14 14 13 13 14 13 13 10
6 5 9 8 6 9 12 10 9 8 6 3 4 5 6 7 9 10 11 12 13 14 13 12 14 15 15 15 16 16 14 15
Wind_Direction
166 168 131 271 207 189 144 69 86 268 279 310 18 38 27 82 53 256 241 190 213 250 146 164 207 218 197 258 135 90 242 220
282 110 185 156 187 34 17 176 98 281 285 233 111 135 61 9 30 312 265 137 156 117 66 51 198 247 191 175 99 271 336 353
23 18 226 350 19 24 107 109 153 179 255 213 186 167 134 139 219 236 243 125 119 65 67 76 71 53 5 101 145 211 255 241
218 267 127 145 109 112 109 299 180 159 277 254 212 174 187 198 213 215 187 108 130 120 107 100 92 68 78 54 61 272 297 284
351 349 11 75 65 144 125 89 130 130 266 31 45 25 70 93 110 152 105 95 66 43 102 155 132 85 143 155 84 53 34 13
173 216 215 3 63 66 98 75 286 294 51 24 86 70 60 79 131 124 130 141 147 173 201 258 262 272 174 132 111 88 58 46
238 84 84 221 351 61 87 191 114 300 101 115 134 132 130 109 114 117 135 155 179 177 204 228 243 256 219 173 153 140 112 88
52 75 144 34 344 12 67 150 80 115 74 295 169 98 49 50 87 115 184 222 236 241 250 257 248 250 257 237 199 147 149 184
332 334 66 28 342 78 64 31 117 100 131 45 61 66 53 56 48 43 47 42 52 61 266 264 272 247 264 221 230 203 206 223
185 26 61 219 88 78 75 51 59 69 54 53 113 125 83 55 53 28 17 8 353 342 333 331 261 276 273 250 225 231 242 246
111 137 131 10 21 352 116 45 37 78 46 60 18 14 32 25 32 9 353 341 318 321 307 308 307 300 247 234 235 235 232 230
113 139 185 239 289 165 120 65 325 104 82 50 38 55 283 337 24 28 15 6 359 351 352 356 339 340 329 305 305 280 262 248
124 115 316 268 317 35 108 207 304 79 67 49 63 190 246 318 7 360 2 351 341 336 327 308 313 321 320 306 294 275 273 267
81 92 216 285 19 108 190 214 89 52 59 79 88 350 5 15 10 359 350 351 344 349 336 326 315 310 299 293 296 297 283 280
134 177 263 32 112 130 161 109 65 98 68 73 47 34 23 353 349 346 343 340 336 328 324 325 319 313 305 303 299 292 297 291
82 313 100 97 91 90 80 107 124 88 73 73 78 40 10 353 346 336 336 333 326 327 328 315 315 310 304 301 294 280 280 288
60 169 81 41 61 107 94 88 83 77 75 68 55 22 358 339 330 336 329 324 327 323 324 317 312 310 306 308 305 291 297 292
193 205 134 119 126 102 67 87 76 87 74 58 55 13 350 355 345 334 325 328 335 340 337 341 336 335 334 354 341 328 315 301
155 154 118 142 103 78 100 99 95 91 89 60 16 19 347 345 342 339 342 347 342 335 330 335 338 333 332 337 328 323 316 310